This demonstration page uses our WeatherBlox Daily Observations layout. Learn more.

Left ArrowRight Arrow

Hourly Observations for May 2, 2015

Temp ( °F °C ) Dew Point ( °F °C ) Humidity (%) Winds ( mph kmh ) Pressure ( in mb ) Visibility ( mi km ) Precip ( " mm )
12:53 am 00:53 Mostly Cloudy 65 18.3 51 10.6 61 61 S 5 7 29.94 1014 10 16 0.00 0.00
1:53 am 01:53 Mostly Cloudy 62 16.7 51 10.6 67 67 S 5 7 29.93 1014 10 16 0.00 0.00
2:53 am 02:53 Partly Cloudy 61 16.1 51 10.6 70 70 S 6 9 29.92 1013 10 16 0.00 0.00
3:53 am 03:53 Clear 60 15.6 51 10.6 72 72 S 9 15 29.89 1012 10 16 0.00 0.00
4:53 am 04:53 Clear 60 15.6 50 10 70 70 S 8 13 29.86 1011 10 16 0.00 0.00
5:53 am 05:53 Mostly Cloudy 61 16.1 50 10 67 67 S 10 17 29.85 1011 10 16 0.00 0.00
6:53 am 06:53 Mostly Sunny 62 16.7 50 10 65 65 SW 9 15 29.86 1011 10 16 0.00 0.00
7:53 am 07:53 Mostly Sunny 61 16.1 50 10 67 67 SSW 12 19 29.86 1011 10 16 0.00 0.00
8:53 am 08:53 Mostly Sunny 63 17.2 51 10.6 65 65 SSW 12 19 29.86 1011 10 16 0.00 0.00
9:53 am 09:53 Mostly Cloudy 66 18.9 52 11.1 61 61 SW 9 15 29.86 1011 10 16 0.00 0.00
10:53 am 10:53 Sunny 73 22.8 53 11.7 50 50 WSW 9 15 29.85 1011 10 16 0.00 0.00
11:53 am 11:53 Sunny 76 24.4 53 11.7 45 45 S 12 19 29.83 1010 10 16 0.00 0.00
12:53 pm 12:53 Sunny 79 26.1 53 11.7 41 41 SW 8 13 29.80 1009 10 16 0.00 0.00
1:53 pm 13:53 Sunny 82 27.8 53 11.7 37 37 SW 9 15 29.78 1008 10 16 0.00 0.00
2:53 pm 14:53 Sunny 83 28.3 51 10.6 33 33 S 14 22 29.75 1007 10 16 0.00 0.00
3:53 pm 15:53 Sunny 84 28.9 49 9.4 30 30 SSW 15 24 29.72 1007 10 16 0.00 0.00
4:53 pm 16:53 Sunny 85 29.4 47 8.3 27 27 S 12 19 29.70 1006 10 16 0.00 0.00
5:53 pm 17:53 Sunny 85 29.4 45 7.2 25 25 SSW 13 20 29.68 1005 10 16 0.00 0.00
6:53 pm 18:53 Sunny 83 28.3 47 8.3 28 28 S 12 19 29.67 1005 10 16 0.00 0.00
7:53 pm 19:53 Sunny 79 26.1 51 10.6 38 38 S 8 13 29.67 1005 10 16 0.00 0.00
8:53 pm 20:53 Clear 76 24.4 52 11.1 43 43 S 10 17 29.68 1005 10 16 0.00 0.00
9:53 pm 21:53 Clear 73 22.8 53 11.7 50 50 S 10 17 29.69 1005 10 16 0.00 0.00
10:53 pm 22:53 Clear 72 22.2 52 11.1 50 50 S 10 17 29.69 1006 10 16 0.00 0.00
11:53 pm 23:53 Clear 70 21.1 52 11.1 53 53 SSW 10 17 29.69 1005 10 16 0.00 0.00

Powered by AerisWeather